Home   Weather   Pirna   Past weeks

Flag for Germany Past Weather in Pirna, Saxony, Germany — Yesterday and Last 2 Weeks

Now
66 °F

Partly sunny.


Feels Like: 66 °F
Forecast: 60 / 72 °F
Wind: 8 mph from Southwest

Location: Dresden-Klotzsche

Current Time: Jul 27, 2017 at 5:03:39 pm

Latest Report: Jul 27, 2017 at 4:20 pm


Visibility: N/A

Pressure: 29.77 "Hg

Humidity: 83%

Dew Point: 61 °F

Location of PirnaLocation

Past Weather in Pirna — Graph

°F

Pirna Temperature Yesterday

Maximum temperature yesterday: 63 °F (at 11:20 am)
Minimum temperature yesterday: 57 °F (at 12:20 am)
Average temperature yesterday: 59 °F

High & Low Weather Summary for the Past Weeks

 TemperatureHumidityPressure
High86 °F (Jul 19, 4:20 pm)100% (Jul 18, 5:50 am)30.27 "Hg (Jul 18, 5:50 am)
Low48 °F (Jul 14, 4:20 am)33% (Jul 16, 4:50 pm)29.53 "Hg (Jul 26, 4:20 am)
Average65 °F73%29.94 "Hg
* Reported Jul 12 3:20 pm — Jul 27 3:50 pm, Pirna. Weather by CustomWeather, © 2017

Note: Actual official high and low records may vary slightly from our data, if they occured in-between our weather recording intervals... More about our weather records

Advertising

Pirna Weather History for the Previous 24 Hours

Scroll right to see more
 ConditionsComfort  
Time TempWeatherWind HumidityBarometerVisibility
3:50 pm
Thu, Jul 27
66 °FPartly sunny.7 mph83%29.77 "HgN/A
3:20 pm64 °FLight rain. Partly sunny.9 mph83%29.77 "HgN/A
2:50 pm64 °FPartly sunny.7 mph88%29.77 "HgN/A
2:20 pm64 °FLight rain. Partly sunny.6 mph88%29.77 "HgN/A
1:50 pm66 °FLight rain. Partly sunny.14 mph78%29.77 "HgN/A
1:20 pm68 °FBroken clouds.9 mph69%29.77 "HgN/A
12:50 pm70 °FPartly sunny.7 mph60%29.77 "HgN/A
12:20 pm72 °FPartly sunny.7 mph61%29.77 "HgN/A
11:50 am72 °FScattered clouds.8 mph61%29.77 "HgN/A
11:20 am70 °FScattered clouds.7 mph64%29.77 "HgN/A
10:50 am68 °FMild.8 mph69%29.77 "HgN/A
10:20 am66 °FPassing clouds.7 mph73%29.77 "HgN/A
9:50 am66 °FPassing clouds.6 mph78%29.77 "HgN/A
9:20 am64 °FPassing clouds.5 mph83%29.77 "HgN/A
8:50 am63 °FPassing clouds.6 mph88%29.77 "HgN/A
8:20 am61 °FScattered clouds.6 mph88%29.77 "HgN/A
7:50 am61 °FPassing clouds.7 mph88%29.77 "HgN/A
7:20 am59 °FClear.6 mph94%29.77 "Hg6 mi
6:50 am57 °FClear.6 mph94%29.77 "Hg6 mi
6:20 am57 °FClear.5 mph100%29.77 "Hg6 mi
5:50 am57 °FPartly sunny.7 mph100%29.77 "Hg6 mi
5:20 am59 °FPassing clouds.6 mph94%29.77 "Hg6 mi
4:50 am59 °FPassing clouds.7 mph94%29.74 "Hg6 mi
4:20 am59 °FPassing clouds.6 mph94%29.74 "Hg6 mi
3:50 am59 °FPartly cloudy.8 mph94%29.74 "Hg6 mi
3:20 am59 °FPassing clouds.8 mph100%29.74 "Hg5 mi
2:50 am59 °FPassing clouds.7 mph100%29.74 "Hg6 mi
2:20 am59 °FPassing clouds.8 mph100%29.74 "Hg5 mi
1:50 am59 °FPartly cloudy.6 mph100%29.74 "Hg6 mi
1:20 am59 °FPassing clouds.6 mph94%29.74 "HgN/A
12:50 am59 °FLight rain. Passing clouds.6 mph94%29.74 "HgN/A
12:20 am59 °FLight rain. Partly cloudy.8 mph94%29.74 "HgN/A
11:50 pm
Wed, Jul 26
59 °FLight rain. Passing clouds.10 mph94%29.74 "Hg6 mi
11:20 pm59 °FLight rain. Passing clouds.15 mph94%29.74 "Hg5 mi
10:50 pm59 °FLight rain. Passing clouds.13 mph94%29.71 "Hg5 mi
10:20 pm57 °FRain. Passing clouds.14 mph100%29.71 "Hg4 mi
9:50 pm57 °FRain. Passing clouds.15 mph100%29.71 "Hg4 mi
9:20 pm57 °FRain. Passing clouds.17 mph100%29.71 "Hg3 mi
8:50 pm57 °FRain. Partly sunny.18 mph94%29.68 "Hg3 mi
8:20 pm57 °FRain. Partly sunny.18 mph94%29.68 "Hg3 mi
7:50 pm57 °FRain. Partly sunny.15 mph100%29.68 "Hg3 mi
7:24 pm57 °FRain. Partly sunny.17 mph100%29.65 "Hg3 mi
7:20 pm57 °FRain. Partly sunny.16 mph100%29.65 "Hg3 mi
6:50 pm57 °FDrizzle. Partly sunny.14 mph100%29.65 "Hg2 mi
6:20 pm59 °FDrizzle. Partly sunny.13 mph94%29.65 "Hg2 mi
5:50 pm57 °FDrizzle. Partly sunny.13 mph100%29.65 "Hg2 mi
5:20 pm59 °FDrizzle. Broken clouds.15 mph94%29.62 "Hg2 mi
Weather by CustomWeather, © 2017

See weather overviewHow to use our weather pages